Location: Saratoga Springs
(43.0831°N, 73.7850°W)
Time: 11:41:14
(UTC-04:00)

Vanguard 3 - Pass Details

Date: 27 April 2024
Orbit: 509 x 3233 km, 33.3° (Epoch: 23 May)

Event Time Altitude Azimuth Distance (km) Brightness Sun altitude
Exits shadow 03:03:32 34° 212° (SSW) 4,096 10.1 -25.5°
Maximum altitude 03:10:51 49° 165° (SSE) 3,153 9.8 -24.7°
Drops below altitude 10° 03:22:41 10° 96° (E) 4,258 11.2 -23.4°
Sets 03:25:34 0° 91° (E) 4,933 11.7 -23.0°
